Regional Weather Roundup
Issued by NWS Lake Charles, LA

Current Version | Previous Version | Text Only | Print | Product List | Glossary On
Versions: 1 2 3 4 5 6 7 8 9 10 11 12 13 14 15 16 17 18 19 20 21 22 23 24 25 26 27 28 29 30 31 32 33 34 35 36 37 38 39 40 41 42 43 44 45 46 47 48
000
ASUS44 KLCH 241110
RWRLCH
RWRLCH
REGIONAL WEATHER ROUNDUP
NATIONAL WEATHER SERVICE LAKE CHARLES LA
600 AM CDT SUN MAY 24 2015

Note: "fair" indicates few or no clouds below 12,000 feet with no
significant weather and/or obstructions to visibility.


ACROSS SOUTHEAST TEXAS

CITY           SKY/WX    TMP DP  RH WIND       PRES   REMARKS
BEAUMONT       CLOUDY    77  73  87 S13       29.96F
BEAUMONT CITY    N/A     76  73  90 SE8       29.97R
ORANGE         CLOUDY    77  73  86 SE7       30.00R
JASPER         PTCLDY    74  73  95 E6        30.00S
$$

ACROSS CENTRAL LOUISIANA

CITY           SKY/WX    TMP DP  RH WIND       PRES   REMARKS
LEESVILLE      CLOUDY    74  72  94 SE8       30.00R
FULLERTON      CLOUDY    77  72  84 VRB5      29.99R
ALEXANDRIA INT CLOUDY    74  72  93 SE13      30.00S
ESLER FIELD    CLOUDY    74  71  91 SE8       30.03S FOG
DERIDDER       CLOUDY    74  73  95 SE5       30.02R
OAKDALE        CLOUDY    74  73  95 SE3       30.02R FOG
OPELOUSAS      CLOUDY   N/A N/A N/A SE6       30.02S
$$

ACROSS SOUTHWEST AND SOUTH CENTRAL LOUISIANA

CITY           SKY/WX    TMP DP  RH WIND       PRES   REMARKS
SULPHUR        MOSUNNY   78  74  85 SE10      29.99F
LAKE CHARLES   PTCLDY    76  73  91 SE7       29.99R
CHENNAULT INT  PTCLDY    73  73 100 SE6       30.00R
CAMERON PHI    PTSUNNY   81  75  83 S17       30.01F
DEQUINCY         N/A     72  72 100 E3        29.99S
JENNINGS         N/A     73  72  99 SE3       30.02R
LAFAYETTE      MOCLDY    74  73  97 VRB3      30.02R FOG
NEW IBERIA     PTCLDY    76  73  91 E10       30.02S
ABBEVILLE      PTSUNNY   74  72  93 CALM      30.02R
PATTERSON      CLEAR     75  72  88 SE6       30.04R
SALT POINT       N/A     77  74  90 E6        30.01R
$$

SELECTED SITES ACROSS THE REGION

CITY           SKY/WX    TMP DP  RH WIND       PRES   REMARKS
HOUSTON BUSH   CLOUDY    78  72  81 SE15      29.92R
HOUSTON HOBBY  CLOUDY    79  73  82 SE10      29.91S
GALVESTON      CLOUDY    80  75  84 SE24G33   29.94F
COLLEGE STAT   TSTM      69  67  93 E12       29.87F FOG
CONROE         CLOUDY    74  71  91 SE7       29.94R
HUNTSVILLE     CLOUDY    73  72  96 VRB3      29.93R
LUFKIN         CLOUDY    76  72  87 SE7       29.95S
SHREVEPORT     MOCLDY    73  71  93 S10       29.99R
MONROE         PTCLDY    70  69  97 CALM      30.05F
NATCHEZ MS     CLEAR     70  66  88 SE7       30.06S
BATON ROUGE    CLEAR     73  71  93 SE5       30.04S
N.O. INTL ARPT PTCLDY    77  72  84 SE7       30.06F
SLIDELL        PTCLDY    77  75  93 SE7       30.08S
$$

MARINE REPORTS

STATION/POSITION TIME  TEMP    WIND        PRES    VSBY  WAVE
                       AIR SEA DIR/SP/G                  HT/PER
                 (UTC) (F)     (DEG/KT/KT) (MB)    (MI)  (FT/S)
BUOY 30 S HIGH I 1050   80 80  150/ 19/ 23 1013.2F         5/ 6
SEA RIM ST PARK  1100   79     170/ 17/ 20 1015.4R
PORT ARTHUR      1000      78  160/  7/ 14 1015.0R
SABINE PASS N    1000   79 80  170/ 12/ 17 1015.0R
TEXAS POINT      NOT AVBL
CALCASIEU PASS   1000   80 81  180/ 17/ 21   N/A
LK CHARLES BEACH 1000   75 78              1015.5F
MARSH ISLAND     1000   82     160/ 18/ 21   N/A           0
FRESH WATER LOCK 1000   80 80  150/ 12/ 17 1015.3F
AMERADA PASS     1000   77 76  130/  5/  8 1016.3F
$$



USA.gov is the U.S. government's official web portal to all federal, state and local government web resources and services.